000000,19.9253, 30 Oct 2015, 00:00:35
000030,19.9233, 30 Oct 2015, 00:01:04
000100,19.9218, 30 Oct 2015, 00:01:35
000130,19.9218, 30 Oct 2015, 00:02:05
000200,19.9232, 30 Oct 2015, 00:02:35
000230,19.9257, 30 Oct 2015, 00:03:04
000300,19.9284, 30 Oct 2015, 00:03:34
000330,19.9318, 30 Oct 2015, 00:04:05
000430,19.9392, 30 Oct 2015, 00:05:04
000500,19.9434, 30 Oct 2015, 00:05:34
000530,19.9467, 30 Oct 2015, 00:06:05
000600,19.9487, 30 Oct 2015, 00:06:35
000630,19.9509, 30 Oct 2015, 00:07:04
000700,19.953, 30 Oct 2015, 00:07:34
000730,19.9575, 30 Oct 2015, 00:08:04
000800,19.9631, 30 Oct 2015, 00:08:35
000830,19.9697, 30 Oct 2015, 00:09:04
000900,19.9757, 30 Oct 2015, 00:09:34
000930,19.9825, 30 Oct 2015, 00:10:04
001000,19.9897, 30 Oct 2015, 00:10:35
001030,19.9963, 30 Oct 2015, 00:11:05
001100,20.0033, 30 Oct 2015, 00:11:34
001130,20.0106, 30 Oct 2015, 00:12:04
001200,20.019, 30 Oct 2015, 00:12:34
001230,20.0272, 30 Oct 2015, 00:13:05
001300,20.0332, 30 Oct 2015, 00:13:35
001330,20.0366, 30 Oct 2015, 00:14:05
001400,20.039, 30 Oct 2015, 00:14:35
001430,20.0404, 30 Oct 2015, 00:15:05
001500,20.0426, 30 Oct 2015, 00:15:35
001530,20.0459, 30 Oct 2015, 00:16:05
001600,20.05, 30 Oct 2015, 00:16:35
001630,20.0561, 30 Oct 2015, 00:17:05
001700,20.0624, 30 Oct 2015, 00:17:35
001730,20.0687, 30 Oct 2015, 00:18:05
001800,20.0747, 30 Oct 2015, 00:18:35
001830,20.0804, 30 Oct 2015, 00:19:05
001900,20.0849, 30 Oct 2015, 00:19:35
001930,20.0883, 30 Oct 2015, 00:20:06
002000,20.0917, 30 Oct 2015, 00:20:35
002030,20.0946, 30 Oct 2015, 00:21:05
002100,20.0961, 30 Oct 2015, 00:21:35
002130,20.0986, 30 Oct 2015, 00:22:05
002230,20.1, 30 Oct 2015, 00:23:05
002300,20.1012, 30 Oct 2015, 00:23:35
002330,20.1013, 30 Oct 2015, 00:24:05
002400,20.1025, 30 Oct 2015, 00:24:34
002430,20.1037, 30 Oct 2015, 00:25:05
002500,20.104, 30 Oct 2015, 00:25:35
002530,20.105, 30 Oct 2015, 00:26:05
002600,20.1053, 30 Oct 2015, 00:26:35
002630,20.1054, 30 Oct 2015, 00:27:05
002700,20.1057, 30 Oct 2015, 00:27:35
002730,20.1072, 30 Oct 2015, 00:28:05
002800,20.1083, 30 Oct 2015, 00:28:35
002830,20.1098, 30 Oct 2015, 00:29:04
002900,20.1107, 30 Oct 2015, 00:29:35
002930,20.113, 30 Oct 2015, 00:30:05
003000,20.1145, 30 Oct 2015, 00:30:35
003030,20.1165, 30 Oct 2015, 00:31:05
003100,20.1187, 30 Oct 2015, 00:31:34
003130,20.1201, 30 Oct 2015, 00:32:05
003200,20.1215, 30 Oct 2015, 00:32:35
003230,20.1227, 30 Oct 2015, 00:33:05
003330,20.1282, 30 Oct 2015, 00:34:05
003400,20.1317, 30 Oct 2015, 00:34:35
003430,20.135, 30 Oct 2015, 00:35:05
003500,20.1394, 30 Oct 2015, 00:35:34
003530,20.1427, 30 Oct 2015, 00:36:04
003600,20.1467, 30 Oct 2015, 00:36:35
003630,20.1505, 30 Oct 2015, 00:37:05
003730,20.1565, 30 Oct 2015, 00:38:04
003800,20.1598, 30 Oct 2015, 00:38:35
003830,20.1637, 30 Oct 2015, 00:39:05
003900,20.1663, 30 Oct 2015, 00:39:35
003930,20.1692, 30 Oct 2015, 00:40:04
004000,20.1714, 30 Oct 2015, 00:40:34
004030,20.174, 30 Oct 2015, 00:41:05
004100,20.1764, 30 Oct 2015, 00:41:35
004200,20.1818, 30 Oct 2015, 00:42:34
004230,20.1838, 30 Oct 2015, 00:43:05
004300,20.1859, 30 Oct 2015, 00:43:35
004330,20.187, 30 Oct 2015, 00:44:04
004400,20.1877, 30 Oct 2015, 00:44:34
004430,20.1875, 30 Oct 2015, 00:45:04
004500,20.1876, 30 Oct 2015, 00:45:35
004530,20.1874, 30 Oct 2015, 00:46:04
004600,20.1875, 30 Oct 2015, 00:46:34
004630,20.1872, 30 Oct 2015, 00:47:04
004700,20.1847, 30 Oct 2015, 00:47:35
004730,20.1811, 30 Oct 2015, 00:48:05
004800,20.1768, 30 Oct 2015, 00:48:34
004830,20.1719, 30 Oct 2015, 00:49:04
004900,20.1672, 30 Oct 2015, 00:49:35
004930,20.1631, 30 Oct 2015, 00:50:05
005000,20.1589, 30 Oct 2015, 00:50:34
005030,20.1557, 30 Oct 2015, 00:51:04
005100,20.1544, 30 Oct 2015, 00:51:34
005130,20.1528, 30 Oct 2015, 00:52:05
005230,20.152, 30 Oct 2015, 00:53:04
005300,20.153, 30 Oct 2015, 00:53:34
005330,20.1552, 30 Oct 2015, 00:54:06
005400,20.156, 30 Oct 2015, 00:54:35
005430,20.1573, 30 Oct 2015, 00:55:05
005500,20.1589, 30 Oct 2015, 00:55:35
005530,20.1608, 30 Oct 2015, 00:56:05
005600,20.164, 30 Oct 2015, 00:56:35
005630,20.1698, 30 Oct 2015, 00:57:05
005700,20.1737, 30 Oct 2015, 00:57:35
005730,20.1787, 30 Oct 2015, 00:58:05
005800,20.1831, 30 Oct 2015, 00:58:36
005830,20.1885, 30 Oct 2015, 00:59:05
005900,20.1923, 30 Oct 2015, 00:59:35
005930,20.1961, 30 Oct 2015, 01:00:05
010000,20.1982, 30 Oct 2015, 01:00:35
010030,20.1999, 30 Oct 2015, 01:01:05
010100,20.2017, 30 Oct 2015, 01:01:35
010130,20.2027, 30 Oct 2015, 01:02:05
010200,20.2048, 30 Oct 2015, 01:02:35
010230,20.2071, 30 Oct 2015, 01:03:06
010300,20.2083, 30 Oct 2015, 01:03:35
010330,20.2094, 30 Oct 2015, 01:04:05
010400,20.2101, 30 Oct 2015, 01:04:35
010500,20.211, 30 Oct 2015, 01:05:35
010530,20.2129, 30 Oct 2015, 01:06:05
010600,20.2136, 30 Oct 2015, 01:06:35
010630,20.214, 30 Oct 2015, 01:07:05
010700,20.2142, 30 Oct 2015, 01:07:34
010730,20.2159, 30 Oct 2015, 01:08:05
010800,20.2163, 30 Oct 2015, 01:08:35
010830,20.2161, 30 Oct 2015, 01:09:05
010900,20.2166, 30 Oct 2015, 01:09:35
010930,20.2166, 30 Oct 2015, 01:10:05
011000,20.2175, 30 Oct 2015, 01:10:35
011030,20.2181, 30 Oct 2015, 01:11:05
011100,20.2192, 30 Oct 2015, 01:11:35
011130,20.2195, 30 Oct 2015, 01:12:04
011200,20.2207, 30 Oct 2015, 01:12:35
011230,20.222, 30 Oct 2015, 01:13:05
011300,20.2224, 30 Oct 2015, 01:13:35
011330,20.2228, 30 Oct 2015, 01:14:04
011400,20.2236, 30 Oct 2015, 01:14:35
011430,20.2249, 30 Oct 2015, 01:15:05
011500,20.2267, 30 Oct 2015, 01:15:35
011530,20.2287, 30 Oct 2015, 01:16:04
011600,20.2297, 30 Oct 2015, 01:16:34
011630,20.2309, 30 Oct 2015, 01:17:05
011700,20.2316, 30 Oct 2015, 01:17:35
011730,20.2312, 30 Oct 2015, 01:18:05
011800,20.2312, 30 Oct 2015, 01:18:34
011830,20.2298, 30 Oct 2015, 01:19:05
011900,20.2279, 30 Oct 2015, 01:19:35
011930,20.2269, 30 Oct 2015, 01:20:05
012000,20.2273, 30 Oct 2015, 01:20:34
012030,20.2272, 30 Oct 2015, 01:21:04
012100,20.2273, 30 Oct 2015, 01:21:35
012130,20.2272, 30 Oct 2015, 01:22:05
012230,20.2258, 30 Oct 2015, 01:23:04
012300,20.2262, 30 Oct 2015, 01:23:35
012330,20.2263, 30 Oct 2015, 01:24:05
012400,20.2278, 30 Oct 2015, 01:24:34
012430,20.2288, 30 Oct 2015, 01:25:04
012500,20.2295, 30 Oct 2015, 01:25:35
012530,20.2299, 30 Oct 2015, 01:26:05
012600,20.2294, 30 Oct 2015, 01:26:34
012630,20.2293, 30 Oct 2015, 01:27:04
012700,20.2286, 30 Oct 2015, 01:27:34
012730,20.2281, 30 Oct 2015, 01:28:05
012800,20.2279, 30 Oct 2015, 01:28:35
012830,20.2276, 30 Oct 2015, 01:29:04
012900,20.2275, 30 Oct 2015, 01:29:34
012930,20.2274, 30 Oct 2015, 01:30:05
013000,20.2263, 30 Oct 2015, 01:30:35
013030,20.2265, 30 Oct 2015, 01:31:04
013100,20.2262, 30 Oct 2015, 01:31:34
013130,20.2263, 30 Oct 2015, 01:32:04
013200,20.2249, 30 Oct 2015, 01:32:35
013300,20.2244, 30 Oct 2015, 01:33:34
013330,20.2241, 30 Oct 2015, 01:34:05
013400,20.2241, 30 Oct 2015, 01:34:36
013430,20.2239, 30 Oct 2015, 01:35:05
013500,20.2236, 30 Oct 2015, 01:35:35
013530,20.2233, 30 Oct 2015, 01:36:05
013600,20.2228, 30 Oct 2015, 01:36:36
013630,20.2225, 30 Oct 2015, 01:37:05
013700,20.2223, 30 Oct 2015, 01:37:35
013730,20.2215, 30 Oct 2015, 01:38:05
013800,20.2217, 30 Oct 2015, 01:38:35
013830,20.2214, 30 Oct 2015, 01:39:05
013900,20.2221, 30 Oct 2015, 01:39:35
013930,20.2228, 30 Oct 2015, 01:40:05
014000,20.2227, 30 Oct 2015, 01:40:35
014030,20.2231, 30 Oct 2015, 01:41:06
014100,20.2228, 30 Oct 2015, 01:41:35
014130,20.2224, 30 Oct 2015, 01:42:05
014200,20.222, 30 Oct 2015, 01:42:35
014230,20.2223, 30 Oct 2015, 01:43:06
014300,20.2232, 30 Oct 2015, 01:43:35
014330,20.2243, 30 Oct 2015, 01:44:05
014400,20.2253, 30 Oct 2015, 01:44:35
014430,20.2271, 30 Oct 2015, 01:45:04
014500,20.2275, 30 Oct 2015, 01:45:35
014530,20.2285, 30 Oct 2015, 01:46:05
014600,20.2287, 30 Oct 2015, 01:46:35
014700,20.2272, 30 Oct 2015, 01:47:35
014730,20.226, 30 Oct 2015, 01:48:05
014800,20.2245, 30 Oct 2015, 01:48:35
014830,20.2236, 30 Oct 2015, 01:49:05
014900,20.2226, 30 Oct 2015, 01:49:35
014930,20.221, 30 Oct 2015, 01:50:05
015000,20.2202, 30 Oct 2015, 01:50:35
015030,20.2203, 30 Oct 2015, 01:51:05
015100,20.2198, 30 Oct 2015, 01:51:34
015130,20.2196, 30 Oct 2015, 01:52:05
015200,20.2198, 30 Oct 2015, 01:52:35
015230,20.2206, 30 Oct 2015, 01:53:05
015330,20.2216, 30 Oct 2015, 01:54:05
015400,20.2207, 30 Oct 2015, 01:54:35
015430,20.2199, 30 Oct 2015, 01:55:05
015500,20.22, 30 Oct 2015, 01:55:34
015530,20.2195, 30 Oct 2015, 01:56:05
015600,20.2197, 30 Oct 2015, 01:56:35
015630,20.2203, 30 Oct 2015, 01:57:05
015700,20.2207, 30 Oct 2015, 01:57:34
015730,20.2206, 30 Oct 2015, 01:58:05
015800,20.2212, 30 Oct 2015, 01:58:35
015830,20.2198, 30 Oct 2015, 01:59:05
015900,20.2195, 30 Oct 2015, 01:59:34
015930,20.2191, 30 Oct 2015, 02:00:04
020000,20.2187, 30 Oct 2015, 02:00:35
020030,20.2196, 30 Oct 2015, 02:01:05
020100,20.2199, 30 Oct 2015, 02:01:35
020130,20.2198, 30 Oct 2015, 02:02:04
020200,20.2199, 30 Oct 2015, 02:02:34
020230,20.2188, 30 Oct 2015, 02:03:05
020300,20.2181, 30 Oct 2015, 02:03:35
020330,20.2176, 30 Oct 2015, 02:04:04
020400,20.2185, 30 Oct 2015, 02:04:34
020430,20.2194, 30 Oct 2015, 02:05:05
020500,20.2205, 30 Oct 2015, 02:05:35
020530,20.2202, 30 Oct 2015, 02:06:04
020600,20.2202, 30 Oct 2015, 02:06:34
020630,20.2205, 30 Oct 2015, 02:07:04
020700,20.221, 30 Oct 2015, 02:07:35
020730,20.222, 30 Oct 2015, 02:08:05
020800,20.222, 30 Oct 2015, 02:08:34
020830,20.2214, 30 Oct 2015, 02:09:04
020900,20.2216, 30 Oct 2015, 02:09:35
020930,20.2217, 30 Oct 2015, 02:10:05
021030,20.2226, 30 Oct 2015, 02:11:04
021100,20.2226, 30 Oct 2015, 02:11:34
021130,20.2228, 30 Oct 2015, 02:12:05
021200,20.2234, 30 Oct 2015, 02:12:35
021230,20.2232, 30 Oct 2015, 02:13:04
021300,20.223, 30 Oct 2015, 02:13:34
021330,20.2219, 30 Oct 2015, 02:14:06
021400,20.2199, 30 Oct 2015, 02:14:35
021430,20.2183, 30 Oct 2015, 02:15:05
021500,20.2172, 30 Oct 2015, 02:15:35
021530,20.216, 30 Oct 2015, 02:16:06
021600,20.2148, 30 Oct 2015, 02:16:35
021630,20.2143, 30 Oct 2015, 02:17:05
021700,20.2138, 30 Oct 2015, 02:17:35
021730,20.2142, 30 Oct 2015, 02:18:05
021800,20.2148, 30 Oct 2015, 02:18:36
021830,20.2141, 30 Oct 2015, 02:19:05
021900,20.2144, 30 Oct 2015, 02:19:35
021930,20.2136, 30 Oct 2015, 02:20:05
022000,20.2133, 30 Oct 2015, 02:20:36
022030,20.2139, 30 Oct 2015, 02:21:05
022100,20.2148, 30 Oct 2015, 02:21:35
022130,20.2159, 30 Oct 2015, 02:22:05
022200,20.2168, 30 Oct 2015, 02:22:35
022300,20.2179, 30 Oct 2015, 02:23:35
022330,20.2178, 30 Oct 2015, 02:24:05
022400,20.2195, 30 Oct 2015, 02:24:35
022430,20.2194, 30 Oct 2015, 02:25:05
022500,20.2199, 30 Oct 2015, 02:25:35
022530,20.2199, 30 Oct 2015, 02:26:05
022600,20.2206, 30 Oct 2015, 02:26:35
022630,20.2199, 30 Oct 2015, 02:27:04
022700,20.2196, 30 Oct 2015, 02:27:35
022730,20.2194, 30 Oct 2015, 02:28:05
022800,20.2193, 30 Oct 2015, 02:28:35
022900,20.2195, 30 Oct 2015, 02:29:35
022930,20.2196, 30 Oct 2015, 02:30:05
023000,20.2191, 30 Oct 2015, 02:30:35
023030,20.2195, 30 Oct 2015, 02:31:05
023100,20.2187, 30 Oct 2015, 02:31:35
023130,20.2186, 30 Oct 2015, 02:32:05
023200,20.2167, 30 Oct 2015, 02:32:35
023230,20.2164, 30 Oct 2015, 02:33:05
023300,20.2155, 30 Oct 2015, 02:33:35
023330,20.2153, 30 Oct 2015, 02:34:05
023400,20.215, 30 Oct 2015, 02:34:35
023500,20.2147, 30 Oct 2015, 02:35:34
023530,20.2147, 30 Oct 2015, 02:36:05
023600,20.2142, 30 Oct 2015, 02:36:35
023630,20.2135, 30 Oct 2015, 02:37:05
023700,20.2133, 30 Oct 2015, 02:37:34
023730,20.2136, 30 Oct 2015, 02:38:05
023800,20.2128, 30 Oct 2015, 02:38:35
023830,20.2134, 30 Oct 2015, 02:39:05
023900,20.213, 30 Oct 2015, 02:39:34
023930,20.2135, 30 Oct 2015, 02:40:05
024000,20.2133, 30 Oct 2015, 02:40:35
024030,20.214, 30 Oct 2015, 02:41:05
024100,20.2139, 30 Oct 2015, 02:41:34
024130,20.2138, 30 Oct 2015, 02:42:04
024200,20.2133, 30 Oct 2015, 02:42:35
024230,20.2123, 30 Oct 2015, 02:43:05
024300,20.2126, 30 Oct 2015, 02:43:35
024330,20.2124, 30 Oct 2015, 02:44:04
024400,20.2132, 30 Oct 2015, 02:44:35
024430,20.2132, 30 Oct 2015, 02:45:05
024500,20.2135, 30 Oct 2015, 02:45:34
024530,20.2132, 30 Oct 2015, 02:46:04
024600,20.2134, 30 Oct 2015, 02:46:35
024630,20.214, 30 Oct 2015, 02:47:05
024700,20.214, 30 Oct 2015, 02:47:34
024730,20.2145, 30 Oct 2015, 02:48:04
024800,20.2144, 30 Oct 2015, 02:48:34
024830,20.2142, 30 Oct 2015, 02:49:05
024930,20.2153, 30 Oct 2015, 02:50:04
025000,20.2151, 30 Oct 2015, 02:50:34
025030,20.2154, 30 Oct 2015, 02:51:05
025100,20.2152, 30 Oct 2015, 02:51:35
025130,20.2145, 30 Oct 2015, 02:52:04
025200,20.2145, 30 Oct 2015, 02:52:34
025230,20.2159, 30 Oct 2015, 02:53:05
025300,20.2164, 30 Oct 2015, 02:53:35
025330,20.2163, 30 Oct 2015, 02:54:04
025400,20.2158, 30 Oct 2015, 02:54:34
025430,20.2161, 30 Oct 2015, 02:55:05
025500,20.2166, 30 Oct 2015, 02:55:34
025530,20.2168, 30 Oct 2015, 02:56:04
025600,20.2183, 30 Oct 2015, 02:56:34
025630,20.2192, 30 Oct 2015, 02:57:04
025730,20.2187, 30 Oct 2015, 02:58:04
025800,20.2192, 30 Oct 2015, 02:58:34
025830,20.219, 30 Oct 2015, 02:59:04
025900,20.2197, 30 Oct 2015, 02:59:35
025930,20.2201, 30 Oct 2015, 03:00:04
030000,20.2199, 30 Oct 2015, 03:00:34
030030,20.2192, 30 Oct 2015, 03:01:04
030100,20.2189, 30 Oct 2015, 03:01:35
030200,20.2181, 30 Oct 2015, 03:02:34
030230,20.2179, 30 Oct 2015, 03:03:04
030300,20.2179, 30 Oct 2015, 03:03:34
030330,20.2174, 30 Oct 2015, 03:04:05
030400,20.2173, 30 Oct 2015, 03:04:35
030430,20.2173, 30 Oct 2015, 03:05:05
030500,20.2161, 30 Oct 2015, 03:05:35
030600,20.2158, 30 Oct 2015, 03:06:35
030630,20.2155, 30 Oct 2015, 03:07:05
030700,20.2157, 30 Oct 2015, 03:07:35
030730,20.2164, 30 Oct 2015, 03:08:05
030800,20.2159, 30 Oct 2015, 03:08:35
030830,20.2161, 30 Oct 2015, 03:09:05
030900,20.2161, 30 Oct 2015, 03:09:35
030930,20.2164, 30 Oct 2015, 03:10:05
031000,20.2165, 30 Oct 2015, 03:10:35
031030,20.2164, 30 Oct 2015, 03:11:05
031100,20.2167, 30 Oct 2015, 03:11:35
031130,20.2162, 30 Oct 2015, 03:12:05
031200,20.2159, 30 Oct 2015, 03:12:35
031230,20.2155, 30 Oct 2015, 03:13:05
031300,20.2155, 30 Oct 2015, 03:13:35
031330,20.2163, 30 Oct 2015, 03:14:05
031430,20.2166, 30 Oct 2015, 03:15:04
031500,20.2162, 30 Oct 2015, 03:15:35
031530,20.216, 30 Oct 2015, 03:16:05
031600,20.2163, 30 Oct 2015, 03:16:35
031630,20.2164, 30 Oct 2015, 03:17:04
031700,20.2157, 30 Oct 2015, 03:17:35
031730,20.2159, 30 Oct 2015, 03:18:05
031800,20.2164, 30 Oct 2015, 03:18:35
031830,20.2162, 30 Oct 2015, 03:19:04
031900,20.2164, 30 Oct 2015, 03:19:35
031930,20.2166, 30 Oct 2015, 03:20:05
032000,20.2176, 30 Oct 2015, 03:20:35
032030,20.217, 30 Oct 2015, 03:21:05
032100,20.2179, 30 Oct 2015, 03:21:34
032130,20.2171, 30 Oct 2015, 03:22:05
032200,20.2174, 30 Oct 2015, 03:22:35
032230,20.217, 30 Oct 2015, 03:23:05
032300,20.2174, 30 Oct 2015, 03:23:34
032330,20.2167, 30 Oct 2015, 03:24:05
032400,20.2163, 30 Oct 2015, 03:24:35
032430,20.2168, 30 Oct 2015, 03:25:04
032500,20.2176, 30 Oct 2015, 03:25:34
032530,20.2184, 30 Oct 2015, 03:26:05
032600,20.2188, 30 Oct 2015, 03:26:35
032700,20.2186, 30 Oct 2015, 03:27:34
032730,20.2194, 30 Oct 2015, 03:28:04
032800,20.2204, 30 Oct 2015, 03:28:35
032830,20.2199, 30 Oct 2015, 03:29:05
032900,20.2206, 30 Oct 2015, 03:29:34
032930,20.2198, 30 Oct 2015, 03:30:04
033000,20.2192, 30 Oct 2015, 03:30:35
033030,20.2189, 30 Oct 2015, 03:31:05
033100,20.2164, 30 Oct 2015, 03:31:34
033130,20.2144, 30 Oct 2015, 03:32:04
033200,20.2129, 30 Oct 2015, 03:32:35
033230,20.2113, 30 Oct 2015, 03:33:05
033330,20.209, 30 Oct 2015, 03:34:04
033400,20.2083, 30 Oct 2015, 03:34:34
033430,20.2076, 30 Oct 2015, 03:35:05
033500,20.2086, 30 Oct 2015, 03:35:34
033530,20.2083, 30 Oct 2015, 03:36:04
033600,20.2085, 30 Oct 2015, 03:36:34
033630,20.2093, 30 Oct 2015, 03:37:05
033700,20.2086, 30 Oct 2015, 03:37:34
033730,20.2093, 30 Oct 2015, 03:38:04
033800,20.2104, 30 Oct 2015, 03:38:34
033830,20.2121, 30 Oct 2015, 03:39:05
033900,20.2144, 30 Oct 2015, 03:39:34
033930,20.2155, 30 Oct 2015, 03:40:04
034000,20.2151, 30 Oct 2015, 03:40:34
034030,20.2157, 30 Oct 2015, 03:41:04
034100,20.2161, 30 Oct 2015, 03:41:35
034130,20.2159, 30 Oct 2015, 03:42:04
034200,20.2161, 30 Oct 2015, 03:42:34
034230,20.2166, 30 Oct 2015, 03:43:04
034300,20.2165, 30 Oct 2015, 03:43:35
034330,20.2172, 30 Oct 2015, 03:44:04
034400,20.2185, 30 Oct 2015, 03:44:35
034430,20.2196, 30 Oct 2015, 03:45:05
034500,20.2206, 30 Oct 2015, 03:45:35
034530,20.2221, 30 Oct 2015, 03:46:05
034600,20.2228, 30 Oct 2015, 03:46:35
034630,20.2235, 30 Oct 2015, 03:47:05
034700,20.2239, 30 Oct 2015, 03:47:35
034730,20.2249, 30 Oct 2015, 03:48:05
034800,20.2256, 30 Oct 2015, 03:48:35
034830,20.2262, 30 Oct 2015, 03:49:05
034930,20.2281, 30 Oct 2015, 03:50:05
035000,20.2284, 30 Oct 2015, 03:50:35
035030,20.2278, 30 Oct 2015, 03:51:05
035100,20.227, 30 Oct 2015, 03:51:35
035130,20.2254, 30 Oct 2015, 03:52:05
035200,20.2242, 30 Oct 2015, 03:52:35
035230,20.2226, 30 Oct 2015, 03:53:05
035300,20.2212, 30 Oct 2015, 03:53:35
035330,20.2208, 30 Oct 2015, 03:54:05
035400,20.2195, 30 Oct 2015, 03:54:35
035430,20.219, 30 Oct 2015, 03:55:05
035500,20.218, 30 Oct 2015, 03:55:34
035530,20.2176, 30 Oct 2015, 03:56:05
035600,20.217, 30 Oct 2015, 03:56:35
035630,20.2165, 30 Oct 2015, 03:57:05
035730,20.2151, 30 Oct 2015, 03:58:04
035800,20.2138, 30 Oct 2015, 03:58:35
035830,20.2127, 30 Oct 2015, 03:59:05
035900,20.2121, 30 Oct 2015, 03:59:35
035930,20.2115, 30 Oct 2015, 04:00:04
040000,20.2116, 30 Oct 2015, 04:00:35
040030,20.2115, 30 Oct 2015, 04:01:05
040100,20.2111, 30 Oct 2015, 04:01:35
040200,20.2059, 30 Oct 2015, 04:02:34
040230,20.2025, 30 Oct 2015, 04:03:05
040300,20.2002, 30 Oct 2015, 04:03:35
040330,20.1975, 30 Oct 2015, 04:04:05
040400,20.197, 30 Oct 2015, 04:04:34
040430,20.196, 30 Oct 2015, 04:05:05
040500,20.1966, 30 Oct 2015, 04:05:35
040530,20.1967, 30 Oct 2015, 04:06:05
040600,20.1976, 30 Oct 2015, 04:06:34
040630,20.198, 30 Oct 2015, 04:07:04
040700,20.1985, 30 Oct 2015, 04:07:35
040730,20.1995, 30 Oct 2015, 04:08:05
040800,20.2014, 30 Oct 2015, 04:08:34
040830,20.2024, 30 Oct 2015, 04:09:04
040900,20.2039, 30 Oct 2015, 04:09:34
040930,20.2052, 30 Oct 2015, 04:10:05
041000,20.2077, 30 Oct 2015, 04:10:35
041030,20.2087, 30 Oct 2015, 04:11:04
041100,20.2111, 30 Oct 2015, 04:11:34
041130,20.2132, 30 Oct 2015, 04:12:05
041200,20.2155, 30 Oct 2015, 04:12:35
041230,20.2179, 30 Oct 2015, 04:13:04
041300,20.2194, 30 Oct 2015, 04:13:34
041330,20.2213, 30 Oct 2015, 04:14:05
041400,20.2236, 30 Oct 2015, 04:14:35
041430,20.2272, 30 Oct 2015, 04:15:04
041500,20.2301, 30 Oct 2015, 04:15:34
041530,20.2341, 30 Oct 2015, 04:16:04
041600,20.2384, 30 Oct 2015, 04:16:35
041630,20.2428, 30 Oct 2015, 04:17:04
041700,20.2474, 30 Oct 2015, 04:17:34
041730,20.2508, 30 Oct 2015, 04:18:04
041800,20.2535, 30 Oct 2015, 04:18:35
041830,20.2553, 30 Oct 2015, 04:19:04
041900,20.2558, 30 Oct 2015, 04:19:34
041930,20.2555, 30 Oct 2015, 04:20:04
042000,20.2549, 30 Oct 2015, 04:20:35
042030,20.2544, 30 Oct 2015, 04:21:05
042100,20.2532, 30 Oct 2015, 04:21:34
042130,20.2526, 30 Oct 2015, 04:22:04
042200,20.2514, 30 Oct 2015, 04:22:34
042230,20.2519, 30 Oct 2015, 04:23:05
042300,20.2526, 30 Oct 2015, 04:23:34
042330,20.2561, 30 Oct 2015, 04:24:04
042400,20.261, 30 Oct 2015, 04:24:35
042430,20.2674, 30 Oct 2015, 04:25:05
042500,20.2738, 30 Oct 2015, 04:25:35
042530,20.2798, 30 Oct 2015, 04:26:05
042600,20.2861, 30 Oct 2015, 04:26:35
042700,20.2953, 30 Oct 2015, 04:27:35
042730,20.2996, 30 Oct 2015, 04:28:05
042800,20.3045, 30 Oct 2015, 04:28:35
042830,20.309, 30 Oct 2015, 04:29:05
042900,20.314, 30 Oct 2015, 04:29:35
042930,20.3187, 30 Oct 2015, 04:30:05
043000,20.3233, 30 Oct 2015, 04:30:35
043030,20.3273, 30 Oct 2015, 04:31:05
043100,20.3316, 30 Oct 2015, 04:31:35
043130,20.3349, 30 Oct 2015, 04:32:05
043200,20.3384, 30 Oct 2015, 04:32:35
043230,20.3412, 30 Oct 2015, 04:33:05
043300,20.3427, 30 Oct 2015, 04:33:35
043330,20.343, 30 Oct 2015, 04:34:05
043400,20.3432, 30 Oct 2015, 04:34:35
043500,20.3427, 30 Oct 2015, 04:35:35
043530,20.343, 30 Oct 2015, 04:36:05
043600,20.3418, 30 Oct 2015, 04:36:35
043630,20.3411, 30 Oct 2015, 04:37:05
043700,20.3406, 30 Oct 2015, 04:37:34
043730,20.3403, 30 Oct 2015, 04:38:05
043800,20.3395, 30 Oct 2015, 04:38:35
043830,20.3392, 30 Oct 2015, 04:39:05
043900,20.339, 30 Oct 2015, 04:39:34
043930,20.3385, 30 Oct 2015, 04:40:05
044000,20.3382, 30 Oct 2015, 04:40:35
044030,20.3385, 30 Oct 2015, 04:41:05
044100,20.3378, 30 Oct 2015, 04:41:34
044130,20.3369, 30 Oct 2015, 04:42:05
044200,20.3351, 30 Oct 2015, 04:42:35
044230,20.3334, 30 Oct 2015, 04:43:05
044300,20.3315, 30 Oct 2015, 04:43:34
044330,20.3301, 30 Oct 2015, 04:44:05
044400,20.3284, 30 Oct 2015, 04:44:35
044430,20.3268, 30 Oct 2015, 04:45:04
044500,20.3247, 30 Oct 2015, 04:45:34
044530,20.3233, 30 Oct 2015, 04:46:05
044600,20.322, 30 Oct 2015, 04:46:35
044630,20.3211, 30 Oct 2015, 04:47:05
044700,20.3198, 30 Oct 2015, 04:47:34
044730,20.3193, 30 Oct 2015, 04:48:05
044800,20.3185, 30 Oct 2015, 04:48:35
044830,20.3187, 30 Oct 2015, 04:49:05
044900,20.3185, 30 Oct 2015, 04:49:34
044930,20.3177, 30 Oct 2015, 04:50:04
045000,20.3167, 30 Oct 2015, 04:50:35
045030,20.317, 30 Oct 2015, 04:51:05
045100,20.317, 30 Oct 2015, 04:51:34
045130,20.316, 30 Oct 2015, 04:52:04
045200,20.3158, 30 Oct 2015, 04:52:35
045230,20.3157, 30 Oct 2015, 04:53:05
045300,20.3144, 30 Oct 2015, 04:53:34
045330,20.3138, 30 Oct 2015, 04:54:04
045400,20.3116, 30 Oct 2015, 04:54:35
045430,20.3107, 30 Oct 2015, 04:55:04
045500,20.3097, 30 Oct 2015, 04:55:34
045530,20.3076, 30 Oct 2015, 04:56:04
045600,20.3059, 30 Oct 2015, 04:56:35
045700,20.3018, 30 Oct 2015, 04:57:34
045730,20.2996, 30 Oct 2015, 04:58:04
045800,20.2984, 30 Oct 2015, 04:58:35
045830,20.2971, 30 Oct 2015, 04:59:05
045900,20.296, 30 Oct 2015, 04:59:34
045930,20.2953, 30 Oct 2015, 05:00:04
050000,20.295, 30 Oct 2015, 05:00:34
050030,20.2936, 30 Oct 2015, 05:01:05
050100,20.292, 30 Oct 2015, 05:01:34
050130,20.2898, 30 Oct 2015, 05:02:04
050200,20.2867, 30 Oct 2015, 05:02:34
050230,20.2838, 30 Oct 2015, 05:03:05
050300,20.2812, 30 Oct 2015, 05:03:35
050330,20.2797, 30 Oct 2015, 05:04:04
050400,20.2783, 30 Oct 2015, 05:04:35
050430,20.2783, 30 Oct 2015, 05:05:05
050500,20.2772, 30 Oct 2015, 05:05:35
050530,20.2779, 30 Oct 2015, 05:06:05
050600,20.2789, 30 Oct 2015, 05:06:35
050630,20.2804, 30 Oct 2015, 05:07:05
050700,20.282, 30 Oct 2015, 05:07:36
050730,20.2825, 30 Oct 2015, 05:08:05
050800,20.2827, 30 Oct 2015, 05:08:35
050830,20.2834, 30 Oct 2015, 05:09:05
050900,20.2834, 30 Oct 2015, 05:09:35
050930,20.2829, 30 Oct 2015, 05:10:05
051000,20.2841, 30 Oct 2015, 05:10:35
051030,20.2843, 30 Oct 2015, 05:11:05
051100,20.2847, 30 Oct 2015, 05:11:35
051130,20.2854, 30 Oct 2015, 05:12:06
051200,20.2869, 30 Oct 2015, 05:12:35
051230,20.2873, 30 Oct 2015, 05:13:05
051300,20.2882, 30 Oct 2015, 05:13:35
051330,20.2884, 30 Oct 2015, 05:14:05
051400,20.2895, 30 Oct 2015, 05:14:35
051430,20.2899, 30 Oct 2015, 05:15:05
051500,20.2899, 30 Oct 2015, 05:15:35
051530,20.2906, 30 Oct 2015, 05:16:04
051600,20.291, 30 Oct 2015, 05:16:35
051630,20.2917, 30 Oct 2015, 05:17:05
051700,20.2908, 30 Oct 2015, 05:17:35
051730,20.2896, 30 Oct 2015, 05:18:05
051800,20.2892, 30 Oct 2015, 05:18:35
051830,20.2898, 30 Oct 2015, 05:19:05
051900,20.2884, 30 Oct 2015, 05:19:35
051930,20.288, 30 Oct 2015, 05:20:05
052000,20.2871, 30 Oct 2015, 05:20:34
052030,20.2864, 30 Oct 2015, 05:21:05
052100,20.2855, 30 Oct 2015, 05:21:35
052130,20.2861, 30 Oct 2015, 05:22:05
052200,20.2854, 30 Oct 2015, 05:22:34